Regional Weather Roundup
Issued by NWS Charleston, SC

Current Version | Previous Version | Graphics & Text | Print | Product List | Glossary On
Versions: 1 2 3 4 5 6 7 8 9 10 11 12 13 14 15 16 17 18 19 20 21 22 23 24 25 26 27 28 29 30 31 32 33 34 35 36 37 38 39 40 41 42 43 44 45 46 47 48 49 50
000
ASUS42 KCHS 282225
RWRCHS

REGIONAL WEATHER ROUNDUP
NATIONAL WEATHER SERVICE CHARLESTON SC
600 PM EDT THU AUG 28 2014

NOTE: "FAIR" INDICATES FEW OR NO CLOUDS BELOW 12,000 FEET WITH NO
SIGNIFICANT WEATHER AND/OR OBSTRUCTIONS TO VISIBILITY.

NOT ALL STATIONS ARE QUALITY CONTROLLED BY THE NATIONAL
WEATHER SERVICE. USE DATA WITH CAUTION...ESPECIALLY
DEWPOINT OBSERVATIONS.

SCZ027-030-031-034>040-042>050-282300-
...SOUTH CAROLINA...

CITY           SKY/WX    TMP DP  RH WIND       PRES   REMARKS
N CHARLESTON   MOSUNNY   88  64  44 S14       29.99R
WATERFRONT PRK   N/A     84 N/A N/A S13         N/A
FORT JOHNSON   NOT AVBL
MOUNT PLEASANT FAIR      84  66  54 S9        30.00S
JOHNS ISLAND   CLEAR     84  66  54 S8        30.00S
PINOPOLIS        N/A     97  57  26 CALM      29.89S HX  95
MONCKS CORNER    N/A     90  68  48 CALM      29.98S HX  93
SUMMERVILLE    FAIR      91  61  35 CALM      29.99S HX  91
BEAUFORT MCAS  SUNNY     87  65  47 S5        29.99S
BEAUFORT ARPT  FAIR      86  64  48 SE6       29.99S
HILTON HEAD IS SUNNY     84  70  61 SE5       30.02S
GEORGETOWN     NOT AVBL
WALTERBORO     CLEAR     91  46  21 S8        29.98F
ORANGEBURG     SUNNY     92  52  25 SE3       29.97S
BARNWELL       FAIR      93  55  27 SW8       29.97S HX  91
AIKEN          FAIR      95  61  31 S7        30.00S HX  95
MANNING        FAIR      90  64  43 S3        29.97S HX  91
KINGSTREE      NOT AVBL
COLUMBIA       MOSUNNY   95  55  26 E9        29.95S HX  93
SUMTER         SUNNY     93  61  33 N5        29.95S HX  93
FLORENCE       SUNNY     93  61  34 S8        29.96R HX  93
MYRTLE BEACH   SUNNY     88  68  51 S14       29.98S HX  91
N MYRTLE BEACH SUNNY     85  70  60 SW10      29.98R

$$

GAZ063-065-086>088-099>101-113>116-118-119-134-136>141-150-282300-
...GEORGIA...

CITY           SKY/WX    TMP DP  RH WIND       PRES   REMARKS
SAVANNAH ARPT  MOSUNNY   88  59  37 SE10      29.99F
HUNTER AAF     SUNNY     86  66  52 VRB7      29.98S
FORT STEWART   SUNNY     89  59  35 E8        29.98S
STATESBORO     NOT AVBL
SYLVANIA       CLEAR     91  63  39 SE3       29.98F HX  91
CLAXTON        NOT AVBL
THOMSON        SUNNY     95  58  28 CALM      30.01S HX  94
AUGUSTA-BUSH   SUNNY     92  53  26 SE9       29.96S
AUGUSTA-DANIEL SUNNY     94  49  21 SE5       29.98S HX  90
SWAINSBORO     FAIR      95  59  30 CALM      29.97F HX  94
VIDALIA          N/A     91  61  35 SE6       29.97S HX  91
ALMA           SUNNY     91  58  32 S9        29.98S HX  90
WAYCROSS       SUNNY     94  60  32 CALM      29.97S HX  93
JESUP            N/A     91  70  49 SE7       29.98S HX  97
BRUNSWICK      SUNNY     86  64  48 E6        30.00S
SAINT SIMONS   MOSUNNY   83  71  67 E9        29.99F

$$

SCZ027-028-034-036>038-045-046-048>050-GAZ119-141-282300-
...LAKE AND SUPPLEMENTAL COASTAL OBSERVATIONS...

STATION/POSITION TIME  TEMP    WIND        PRES    WAVE   SWELL
                       AIR SEA DIR/SP/G            HT/PER HT/PER/DIR
                 (UTC) (F)     (DEG/KT/KT) (MB)    (FT/S) (FT/S/D)
UPR LAKE MARION  NOT AVBL
WINYAH BAY       2200   85     180/ 10     1015.0S
LAKE MURRAY      2200   95      CALM  /  2 1013.9S
ACE BASIN NERRS  2200   85     160/  3     1016.0S
FORT PULASKI     2200   83     170/  5/  7 1016.1S
SAPELO ISLAND    2200   86     110/  6     1017.0S

$$

ANZ835-935-AMZ111-154-330-350-352-354-374-450-454-472-282300-
...C-MAN AND BUOY OBSERVATIONS...

STATION/POSITION TIME  TEMP    WIND        PRES    WAVE   SWELL
                       AIR SEA DIR/SP/G            HT/PER HT/PER/DIR
                 (UTC) (F)     (DEG/KT/KT) (MB)    (FT/S) (FT/S/D)
FOLLY BEACH CMAN 2200   82     200/ 11/ 13 1016.3R
BUOY 41004       2200   81 84  220/  6/  8 1015.8S   4/10   3/10
BUOY 41008       2200   82 85  100/  6/  8 1016.0F   3/10   2/ 80/10
5E ST. MARYS GA  2200      85                N/A     3/ 9   2/ 90/11
FRYING PAN BUOY  NOT AVBL
BUOY 41025       2200   82     230/ 12/ 14 1014.4R   5/10   5/140/10
CAPE LOOKOUT NC  2200   82     230/  7/  9 1014.7R
BUOY 41002       2105   81 83  240/  6/  6 1017.1    5/ 8   5/ 50/ 8
BUOY 41010       2200   83 85   90/  2/  4 1016.0S   7/ 9   7/ 30/ 9
BUOY 41012       NOT AVBL
ST AUGUSTINE FL  2200   82      80/  8/ 10 1016.1R
CAPERS NEARSHORE 2100   83     200/ 12/ 14   N/A
FRIPP NEARSHORE  NOT AVBL


$$


USA.gov is the U.S. government's official web portal to all federal, state and local government web resources and services.